48 Hour Max Wind (MPH) Per Hour History for Toms River, NJ

Daily Weather Archive for Toms River, NJ

Today's Weather Summary

Current Weather Observations

Today's Max Wind Per Hour

Yesterday's Max Wind Per Hou


Today's Max Wind Speed Per Hour

 

Yesterday's Max Wind Speed Per Hour

Hour (24)  Reading Date & Time  Max Wind Speed Per Hr
06/26/2022 - 12:53:01 AM4
16/26/2022 - 1:53:01 AM3
26/26/2022 - 2:53:01 AM3
36/26/2022 - 3:53:01 AM4
46/26/2022 - 4:53:01 AM5
56/26/2022 - 5:53:01 AM5
66/26/2022 - 6:53:05 AM4
76/26/2022 - 7:53:02 AM5
86/26/2022 - 8:53:02 AM7
96/26/2022 - 9:53:01 AM8
106/26/2022 - 10:53:01 AM7
116/26/2022 - 11:53:01 AM6
126/26/2022 - 12:53:01 PM7
136/26/2022 - 1:53:01 PM10
1400
1500
1600
1700
1800
1900
2000
2100
2200
2300
 
Hour (24)  Reading Date & Time  Max Wind/Hr
06/25/2022 - 12:53:04 AM3
16/25/2022 - 1:53:01 AM5
26/25/2022 - 2:53:01 AM5
36/25/2022 - 3:53:01 AM6
46/25/2022 - 4:53:01 AM6
56/25/2022 - 5:53:01 AM6
66/25/2022 - 6:53:01 AM6
76/25/2022 - 7:53:01 AM6
86/25/2022 - 8:53:01 AM6
96/25/2022 - 9:53:01 AM5
106/25/2022 - 10:53:01 AM4
116/25/2022 - 11:53:01 AM6
126/25/2022 - 12:53:02 PM6
136/25/2022 - 1:53:01 PM6
146/25/2022 - 2:53:01 PM8
156/25/2022 - 3:53:01 PM8
166/25/2022 - 4:53:01 PM9
176/25/2022 - 5:53:01 PM8
186/25/2022 - 6:53:01 PM6
196/25/2022 - 7:53:01 PM5
206/25/2022 - 8:53:01 PM3
216/25/2022 - 9:53:01 PM4
226/25/2022 - 10:53:01 PM6
236/25/2022 - 11:53:04 PM4